Hoquiam, WA
on Wednesday, November 14, 2012

Wednesday
Previous Day Next Day
Daily Summary
 ActualAverageRecord
Temperature
Mean Temperature °F / °C 46°F / 8°C  
Max Temperature 54°F / 12°C 51°F / 11°C 65°F / 18°C (1995)
Min Temperature 39°F / 4°C 41°F / 5°C 13°F / -10°C (1955)
Degree Days
Heating Degree Days 17 19  
Month to date heating degree days 245  
Cooling Degree Days 0 0  
Month to date cooling degree days 0  
Year to date cooling degree days 23  
Moisture
Dew Point 46°F / 8°C   
Average Humidity 95    
Maximum Humidity 100    
Minimum Humidity 75    
Precipitation
Precipitation 0.02 in / 0.51 cm 0.39 in / 9.91 cm 1.83 in / 4.65 cm (2001)
Month to date precipitation 5.05  
Year to date precipitation 51.47  
Wind
Wind Speed 2 mph / 3 km/h   
Max Wind Speed 9 mph / 14 km/h   
Max Gust Speed mph / km/h   
Visibility 6 miles / 9 kilometers   
Events Fog , Rain   

Key: T is trace of precipitation, MM is missing value
Source: NWS Daily Summary
Time(PST)TemperatureDew PointHumidity Pressure Visibility Wind DirectionWind SpeedGust SpeedPrecipitationEvents Conditions
12:04 AM 48.2°F / 9.0°C 48.2°F / 9.0°C 100% 30.20 in / 1022.6 hPa 10.0 miles / 16.1 kilometers South 3.5 mph / 5.6 km/h - N/A   Overcast
12:14 AM 48.2°F / 9.0°C 48.2°F / 9.0°C 100% 30.20 in / 1022.6 hPa 10.0 miles / 16.1 kilometers Calm Calm - N/A   Overcast
12:23 AM 48.2°F / 9.0°C 48.2°F / 9.0°C 100% 30.20 in / 1022.6 hPa 10.0 miles / 16.1 kilometers South 8.1 mph / 13.0 km/h - N/A   Overcast
12:32 AM 48.2°F / 9.0°C 48.2°F / 9.0°C 100% 30.20 in / 1022.6 hPa 10.0 miles / 16.1 kilometers South 9.2 mph / 14.8 km/h - N/A   Mostly Cloudy
12:53 AM 48.9°F / 9.4°C 48.0°F / 8.9°C 97% 30.21 in / 1023.0 hPa 10.0 miles / 16.1 kilometers South 6.9 mph / 11.1 km/h - N/A   Mostly Cloudy
1:17 AM 48.2°F / 9.0°C 48.2°F / 9.0°C 100% 30.20 in / 1022.6 hPa 10.0 miles / 16.1 kilometers South 5.8 mph / 9.3 km/h - N/A   Overcast
1:38 AM 48.2°F / 9.0°C 48.2°F / 9.0°C 100% 30.20 in / 1022.6 hPa 9.0 miles / 14.5 kilometers Calm Calm - N/A   Overcast
1:53 AM 48.9°F / 9.4°C 48.0°F / 8.9°C 97% 30.22 in / 1023.1 hPa 5.0 miles / 8.0 kilometers SW 3.5 mph / 5.6 km/h - 0.01 in / 0.3 cm Rain Light Rain
2:06 AM 50.0°F / 10.0°C 48.2°F / 9.0°C 94% 30.21 in / 1022.9 hPa 10.0 miles / 16.1 kilometers WSW 5.8 mph / 9.3 km/h - 0.00 in / 0.0 cm   Overcast
2:24 AM 50.0°F / 10.0°C 48.2°F / 9.0°C 94% 30.21 in / 1022.9 hPa 10.0 miles / 16.1 kilometers Calm Calm - 0.00 in / 0.0 cm   Overcast
2:53 AM 50.0°F / 10.0°C 48.0°F / 8.9°C 93% 30.22 in / 1023.4 hPa 10.0 miles / 16.1 kilometers Calm Calm - 0.01 in / 0.3 cm   Overcast
3:04 AM 48.2°F / 9.0°C 46.4°F / 8.0°C 93% 30.21 in / 1022.9 hPa 10.0 miles / 16.1 kilometers Calm Calm - N/A   Overcast
3:37 AM 46.4°F / 8.0°C 46.4°F / 8.0°C 100% 30.21 in / 1022.9 hPa 2.5 miles / 4.0 kilometers Calm Calm - N/A   Mostly Cloudy
3:39 AM 46.4°F / 8.0°C 46.4°F / 8.0°C 100% 30.21 in / 1022.9 hPa 1.8 miles / 2.8 kilometers Calm Calm - N/A   Mostly Cloudy
3:49 AM 46.4°F / 8.0°C 46.4°F / 8.0°C 100% 30.22 in / 1023.2 hPa 1.0 miles / 1.6 kilometers Calm Calm - N/A   Mostly Cloudy
3:53 AM 46.9°F / 8.3°C 46.0°F / 7.8°C 97% 30.23 in / 1023.5 hPa 0.8 miles / 1.2 kilometers Calm Calm - N/A   Mostly Cloudy
4:07 AM 46.4°F / 8.0°C 46.4°F / 8.0°C 100% 30.22 in / 1023.2 hPa 1.8 miles / 2.8 kilometers Calm Calm - N/A   Overcast
4:14 AM 46.4°F / 8.0°C 46.4°F / 8.0°C 100% 30.22 in / 1023.2 hPa 2.5 miles / 4.0 kilometers Calm Calm - N/A   Overcast
4:23 AM 46.4°F / 8.0°C 46.4°F / 8.0°C 100% 30.22 in / 1023.2 hPa 1.2 miles / 2.0 kilometers Calm Calm - N/A   Overcast
4:32 AM 46.4°F / 8.0°C 46.4°F / 8.0°C 100% 30.22 in / 1023.2 hPa 1.2 miles / 2.0 kilometers Calm Calm - N/A   Overcast
4:53 AM 46.0°F / 7.8°C 45.0°F / 7.2°C 96% 30.23 in / 1023.7 hPa 1.0 miles / 1.6 kilometers Calm Calm - N/A   Mostly Cloudy
5:00 AM 46.4°F / 8.0°C 44.6°F / 7.0°C 93% 30.22 in / 1023.2 hPa 0.8 miles / 1.2 kilometers Calm Calm - N/A   Mostly Cloudy
5:53 AM 44.1°F / 6.7°C 43.0°F / 6.1°C 96% 30.25 in / 1024.2 hPa 0.8 miles / 1.2 kilometers Calm Calm - N/A   Mist
6:21 AM 42.8°F / 6.0°C 42.8°F / 6.0°C 100% 30.24 in / 1023.9 hPa 0.8 miles / 1.2 kilometers Calm Calm - N/A   Mist
6:48 AM 44.6°F / 7.0°C 44.6°F / 7.0°C 100% 30.25 in / 1024.3 hPa 0.2 miles / 0.4 kilometers Calm Calm - N/A Fog Fog
6:53 AM 43.0°F / 6.1°C 43.0°F / 6.1°C 100% 30.27 in / 1024.8 hPa 0.2 miles / 0.4 kilometers Calm Calm - N/A Fog Fog
7:33 AM 42.8°F / 6.0°C 41.0°F / 5.0°C 93% 30.26 in / 1024.6 hPa 0.5 miles / 0.8 kilometers Calm Calm - N/A Fog Fog
7:41 AM 42.8°F / 6.0°C 41.0°F / 5.0°C 93% 30.26 in / 1024.6 hPa 0.2 miles / 0.4 kilometers Calm Calm - N/A Fog Fog
7:48 AM 42.8°F / 6.0°C 42.8°F / 6.0°C 100% 30.27 in / 1024.9 hPa 0.2 miles / 0.4 kilometers Calm Calm - N/A Fog Fog
7:53 AM 42.1°F / 5.6°C 42.1°F / 5.6°C 100% 30.28 in / 1025.3 hPa 0.2 miles / 0.4 kilometers Calm Calm - N/A Fog Fog
8:02 AM 44.6°F / 7.0°C 44.6°F / 7.0°C 100% 30.27 in / 1024.9 hPa 0.5 miles / 0.8 kilometers Calm Calm - N/A Fog Fog
8:08 AM 44.6°F / 7.0°C 44.6°F / 7.0°C 100% 30.27 in / 1024.9 hPa 2.0 miles / 3.2 kilometers Calm Calm - N/A   Overcast
8:16 AM 44.6°F / 7.0°C 44.6°F / 7.0°C 100% 30.27 in / 1024.9 hPa 7.0 miles / 11.3 kilometers Calm Calm - N/A   Overcast
8:38 AM 44.6°F / 7.0°C 44.6°F / 7.0°C 100% 30.28 in / 1025.3 hPa 10.0 miles / 16.1 kilometers Calm Calm - N/A   Scattered Clouds
8:53 AM 45.0°F / 7.2°C 45.0°F / 7.2°C 100% 30.30 in / 1025.8 hPa 6.0 miles / 9.7 kilometers Calm Calm - N/A   Clear
9:04 AM 44.6°F / 7.0°C 44.6°F / 7.0°C 100% 30.29 in / 1025.6 hPa 1.8 miles / 2.8 kilometers East 4.6 mph / 7.4 km/h - N/A   Clear
9:07 AM 44.6°F / 7.0°C 44.6°F / 7.0°C 100% 30.29 in / 1025.6 hPa 0.2 miles / 0.4 kilometers East 4.6 mph / 7.4 km/h - N/A Fog Fog
9:38 AM 46.4°F / 8.0°C 46.4°F / 8.0°C 100% 30.29 in / 1025.6 hPa 0.2 miles / 0.4 kilometers Calm Calm - N/A Fog Fog
9:48 AM 46.4°F / 8.0°C 46.4°F / 8.0°C 100% 30.29 in / 1025.6 hPa 0.8 miles / 1.2 kilometers Calm Calm - N/A   Mist
9:53 AM 48.0°F / 8.9°C 48.0°F / 8.9°C 100% 30.30 in / 1026.1 hPa 1.2 miles / 2.0 kilometers Calm Calm - N/A   Mostly Cloudy
9:56 AM 48.2°F / 9.0°C 46.4°F / 8.0°C 93% 30.29 in / 1025.6 hPa 2.5 miles / 4.0 kilometers Calm Calm - N/A   Scattered Clouds
10:03 AM 48.2°F / 9.0°C 48.2°F / 9.0°C 100% 30.30 in / 1026.0 hPa 6.0 miles / 9.7 kilometers Calm Calm - N/A   Partly Cloudy
10:29 AM 48.2°F / 9.0°C 48.2°F / 9.0°C 100% 30.30 in / 1026.0 hPa 4.0 miles / 6.4 kilometers ESE 3.5 mph / 5.6 km/h - N/A   Mostly Cloudy
10:39 AM 48.2°F / 9.0°C 46.4°F / 8.0°C 93% 30.30 in / 1026.0 hPa 2.0 miles / 3.2 kilometers East 4.6 mph / 7.4 km/h - N/A   Mostly Cloudy
10:53 AM 48.9°F / 9.4°C 48.0°F / 8.9°C 97% 30.32 in / 1026.6 hPa 2.5 miles / 4.0 kilometers East 4.6 mph / 7.4 km/h - N/A   Overcast
11:08 AM 48.2°F / 9.0°C 48.2°F / 9.0°C 100% 30.31 in / 1026.3 hPa 5.0 miles / 8.0 kilometers East 6.9 mph / 11.1 km/h - N/A   Mostly Cloudy
11:53 AM 51.1°F / 10.6°C 48.0°F / 8.9°C 89% 30.32 in / 1026.6 hPa 10.0 miles / 16.1 kilometers Variable 3.5 mph / 5.6 km/h - N/A   Overcast
12:53 PM 53.1°F / 11.7°C 48.0°F / 8.9°C 83% 30.31 in / 1026.2 hPa 10.0 miles / 16.1 kilometers Calm Calm - N/A   Overcast
1:17 PM 53.6°F / 12.0°C 46.4°F / 8.0°C 77% 30.30 in / 1026.0 hPa 10.0 miles / 16.1 kilometers Calm Calm - N/A   Scattered Clouds
1:53 PM 54.0°F / 12.2°C 46.0°F / 7.8°C 75% 30.30 in / 1026.0 hPa 10.0 miles / 16.1 kilometers Calm Calm - N/A   Clear
2:53 PM 52.0°F / 11.1°C 46.0°F / 7.8°C 80% 30.30 in / 1026.0 hPa 10.0 miles / 16.1 kilometers SSW 3.5 mph / 5.6 km/h - N/A   Partly Cloudy
3:53 PM 51.1°F / 10.6°C 46.0°F / 7.8°C 83% 30.30 in / 1026.1 hPa 10.0 miles / 16.1 kilometers SW 6.9 mph / 11.1 km/h - N/A   Clear
4:17 PM 51.8°F / 11.0°C 46.4°F / 8.0°C 82% 30.29 in / 1025.6 hPa 10.0 miles / 16.1 kilometers SW 3.5 mph / 5.6 km/h - N/A   Mostly Cloudy
4:38 PM 50.0°F / 10.0°C 46.4°F / 8.0°C 87% 30.29 in / 1025.6 hPa 10.0 miles / 16.1 kilometers Calm Calm - N/A   Overcast
4:53 PM 50.0°F / 10.0°C 46.9°F / 8.3°C 89% 30.30 in / 1026.0 hPa 10.0 miles / 16.1 kilometers South 3.5 mph / 5.6 km/h - N/A   Overcast
5:08 PM 50.0°F / 10.0°C 48.2°F / 9.0°C 94% 30.29 in / 1025.6 hPa 10.0 miles / 16.1 kilometers Calm Calm - N/A   Overcast
5:53 PM 50.0°F / 10.0°C 46.9°F / 8.3°C 89% 30.30 in / 1026.1 hPa 10.0 miles / 16.1 kilometers Calm Calm - N/A   Overcast
6:03 PM 48.2°F / 9.0°C 46.4°F / 8.0°C 93% 30.29 in / 1025.6 hPa 10.0 miles / 16.1 kilometers Calm Calm - N/A   Mostly Cloudy
6:53 PM 48.0°F / 8.9°C 44.1°F / 6.7°C 86% 30.30 in / 1026.1 hPa 10.0 miles / 16.1 kilometers North 3.5 mph / 5.6 km/h - N/A   Clear
7:53 PM 46.9°F / 8.3°C 43.0°F / 6.1°C 86% 30.30 in / 1026.0 hPa 10.0 miles / 16.1 kilometers NE 4.6 mph / 7.4 km/h - N/A   Clear
8:53 PM 45.0°F / 7.2°C 43.0°F / 6.1°C 93% 30.30 in / 1025.9 hPa 10.0 miles / 16.1 kilometers NE 6.9 mph / 11.1 km/h - N/A   Clear
9:53 PM 43.0°F / 6.1°C 41.0°F / 5.0°C 93% 30.30 in / 1025.8 hPa 10.0 miles / 16.1 kilometers ENE 5.8 mph / 9.3 km/h - N/A   Clear
10:53 PM 43.0°F / 6.1°C 41.0°F / 5.0°C 93% 30.28 in / 1025.3 hPa 10.0 miles / 16.1 kilometers ENE 4.6 mph / 7.4 km/h - N/A   Clear
11:53 PM 39.9°F / 4.4°C 39.0°F / 3.9°C 97% 30.26 in / 1024.6 hPa 5.0 miles / 8.0 kilometers East 4.6 mph / 7.4 km/h - N/A   Clear
Moon Phase
Nov. 14 Nov. 20 Nov. 28 Dec. 06 Dec. 13
Sunrise:07:18 AM (PST) Moon Rise:08:18 AM (PST)11/14
Sunset:04:41 PM (PST) Moon Set:05:31 PM (PST)11/14

Copyright © 2014 The Weather Underground, Inc.